Starlink 32165

operational
NORAD ID: 60599 Int'l Des: 2024-150 Owner: SPXS Country: US Constellation: starlink
LEOCIRCULAR

Über Starlink 32165

Beschreibung wird geladen...

Live-Position

3D-Globus wird geladen...

Nächste Überflüge

Höhenverlauf

Altitude vs Time

uPlot chart will show altitude changes over time

Zweizeiliger Elementsatz

1 60599U 24150S 25259.86143305 -.00000737 00000-0 -12772-4 0 9996
2 60599 53.1612 34.7140 0001043 82.9538 277.1581 15.30180968 61426
Epoch: 16. Sept. 2025 • Age: 28 hours

Aktueller Status

Höhe 484.1 km
Geschwindigkeit 7.62 km/s
Subsatellitenpunkt -28.00°S, 128.39°W
Startdatum 20. Aug. 2024
Alter 1 years
Typ internet

Technische Details

Klassifizierung Payload
Masse 730.00 kg
Trockenmasse 700.00 kg
Gesamtmasse 730.00 kg
Länge 0.30 m
Durchmesser 4.10 m
Spannweite 29.00 m
Form Box + pan
Hersteller SPXS
Bus-Typ Starlink V2M
Phasenstatus In Orbit
Besitzer/Staat SPXS/US

Große Konstellationen

Loading constellations...